<?xml version="1.0" encoding="UTF-8" standalone="no" ?>
<gpx xmlns="http://www.topografix.com/GPX/1/1" xmlns:xsi="http://www.w3.org/2001/XMLSchema-instance" xsi:schemaLocation="http://www.topografix.com/GPX/1/1 http://www.topografix.com/GPX/1/1/gpx.xsd" version="1.1" creator="VisuGPX - https://www.visugpx.com">
  <metadata>
    <name>Fontainebelleau_2023_20_km-16183176</name>
  </metadata>
  <trk>
    <name><![CDATA[Fontainebelleau_2023_20_km-16183176]]></name>
    <trkseg>
      <trkpt lat="48.40454" lon="2.68318">
        <ele>82</ele>
        <time>2023-02-10T10:07:02Z</time>
      </trkpt>
      <trkpt lat="48.4054" lon="2.67682">
        <ele>85</ele>
        <time>2023-02-10T10:08:43Z</time>
      </trkpt>
      <trkpt lat="48.3962" lon="2.67355">
        <ele>98</ele>
        <time>2023-02-10T10:12:23Z</time>
      </trkpt>
      <trkpt lat="48.3953" lon="2.67148">
        <ele>92</ele>
        <time>2023-02-10T10:13:02Z</time>
      </trkpt>
      <trkpt lat="48.39576" lon="2.66727">
        <ele>98</ele>
        <time>2023-02-10T10:14:08Z</time>
      </trkpt>
      <trkpt lat="48.39591" lon="2.66431">
        <ele>98</ele>
        <time>2023-02-10T10:14:54Z</time>
      </trkpt>
      <trkpt lat="48.39604" lon="2.66384">
        <ele>99</ele>
        <time>2023-02-10T10:15:02Z</time>
      </trkpt>
      <trkpt lat="48.39612" lon="2.66328">
        <ele>100</ele>
        <time>2023-02-10T10:15:11Z</time>
      </trkpt>
      <trkpt lat="48.39592" lon="2.66275">
        <ele>97</ele>
        <time>2023-02-10T10:15:20Z</time>
      </trkpt>
      <trkpt lat="48.39583" lon="2.6618">
        <ele>94</ele>
        <time>2023-02-10T10:15:35Z</time>
      </trkpt>
      <trkpt lat="48.396" lon="2.66084">
        <ele>94</ele>
        <time>2023-02-10T10:15:50Z</time>
      </trkpt>
      <trkpt lat="48.39634" lon="2.6592">
        <ele>93</ele>
        <time>2023-02-10T10:16:17Z</time>
      </trkpt>
      <trkpt lat="48.39714" lon="2.655">
        <ele>91</ele>
        <time>2023-02-10T10:17:25Z</time>
      </trkpt>
      <trkpt lat="48.39737" lon="2.65323">
        <ele>94</ele>
        <time>2023-02-10T10:17:53Z</time>
      </trkpt>
      <trkpt lat="48.39794" lon="2.64756">
        <ele>101</ele>
        <time>2023-02-10T10:19:22Z</time>
      </trkpt>
      <trkpt lat="48.39789" lon="2.64684">
        <ele>100</ele>
        <time>2023-02-10T10:19:33Z</time>
      </trkpt>
      <trkpt lat="48.39775" lon="2.64641">
        <ele>100</ele>
        <time>2023-02-10T10:19:40Z</time>
      </trkpt>
      <trkpt lat="48.39773" lon="2.64294">
        <ele>99</ele>
        <time>2023-02-10T10:20:34Z</time>
      </trkpt>
      <trkpt lat="48.39812" lon="2.63955">
        <ele>104</ele>
        <time>2023-02-10T10:21:28Z</time>
      </trkpt>
      <trkpt lat="48.39831" lon="2.63754">
        <ele>111</ele>
        <time>2023-02-10T10:21:59Z</time>
      </trkpt>
      <trkpt lat="48.39871" lon="2.63699">
        <ele>119</ele>
        <time>2023-02-10T10:22:12Z</time>
      </trkpt>
      <trkpt lat="48.39935" lon="2.63684">
        <ele>126</ele>
        <time>2023-02-10T10:22:27Z</time>
      </trkpt>
      <trkpt lat="48.39961" lon="2.63631">
        <ele>129</ele>
        <time>2023-02-10T10:22:37Z</time>
      </trkpt>
      <trkpt lat="48.40064" lon="2.63575">
        <ele>135</ele>
        <time>2023-02-10T10:23:03Z</time>
      </trkpt>
      <trkpt lat="48.4011" lon="2.63616">
        <ele>136</ele>
        <time>2023-02-10T10:23:15Z</time>
      </trkpt>
      <trkpt lat="48.40163" lon="2.63705">
        <ele>138</ele>
        <time>2023-02-10T10:23:34Z</time>
      </trkpt>
      <trkpt lat="48.40267" lon="2.63879">
        <ele>137</ele>
        <time>2023-02-10T10:24:10Z</time>
      </trkpt>
      <trkpt lat="48.40362" lon="2.63848">
        <ele>139</ele>
        <time>2023-02-10T10:24:33Z</time>
      </trkpt>
      <trkpt lat="48.40417" lon="2.6382">
        <ele>136</ele>
        <time>2023-02-10T10:24:46Z</time>
      </trkpt>
      <trkpt lat="48.40576" lon="2.63895">
        <ele>134</ele>
        <time>2023-02-10T10:25:25Z</time>
      </trkpt>
      <trkpt lat="48.40727" lon="2.6382">
        <ele>135</ele>
        <time>2023-02-10T10:26:02Z</time>
      </trkpt>
      <trkpt lat="48.40793" lon="2.6383">
        <ele>137</ele>
        <time>2023-02-10T10:26:18Z</time>
      </trkpt>
      <trkpt lat="48.40858" lon="2.63883">
        <ele>139</ele>
        <time>2023-02-10T10:26:35Z</time>
      </trkpt>
      <trkpt lat="48.40938" lon="2.63399">
        <ele>139</ele>
        <time>2023-02-10T10:27:52Z</time>
      </trkpt>
      <trkpt lat="48.40971" lon="2.63233">
        <ele>138</ele>
        <time>2023-02-10T10:28:19Z</time>
      </trkpt>
      <trkpt lat="48.41017" lon="2.63082">
        <ele>138</ele>
        <time>2023-02-10T10:28:45Z</time>
      </trkpt>
      <trkpt lat="48.41017" lon="2.62972">
        <ele>135</ele>
        <time>2023-02-10T10:29:02Z</time>
      </trkpt>
      <trkpt lat="48.40994" lon="2.62919">
        <ele>133</ele>
        <time>2023-02-10T10:29:12Z</time>
      </trkpt>
      <trkpt lat="48.40956" lon="2.62685">
        <ele>131</ele>
        <time>2023-02-10T10:29:49Z</time>
      </trkpt>
      <trkpt lat="48.40971" lon="2.62548">
        <ele>128</ele>
        <time>2023-02-10T10:30:11Z</time>
      </trkpt>
      <trkpt lat="48.41049" lon="2.62385">
        <ele>129</ele>
        <time>2023-02-10T10:30:42Z</time>
      </trkpt>
      <trkpt lat="48.41068" lon="2.62067">
        <ele>115</ele>
        <time>2023-02-10T10:31:31Z</time>
      </trkpt>
      <trkpt lat="48.41105" lon="2.61793">
        <ele>104</ele>
        <time>2023-02-10T10:32:15Z</time>
      </trkpt>
      <trkpt lat="48.41272" lon="2.61681">
        <ele>103</ele>
        <time>2023-02-10T10:32:57Z</time>
      </trkpt>
      <trkpt lat="48.4149" lon="2.61045">
        <ele>104</ele>
        <time>2023-02-10T10:34:48Z</time>
      </trkpt>
      <trkpt lat="48.41612" lon="2.60763">
        <ele>88</ele>
        <time>2023-02-10T10:35:40Z</time>
      </trkpt>
      <trkpt lat="48.4112" lon="2.60951">
        <ele>94</ele>
        <time>2023-02-10T10:37:39Z</time>
      </trkpt>
      <trkpt lat="48.41098" lon="2.6085">
        <ele>95</ele>
        <time>2023-02-10T10:37:55Z</time>
      </trkpt>
      <trkpt lat="48.41072" lon="2.60819">
        <ele>95</ele>
        <time>2023-02-10T10:38:03Z</time>
      </trkpt>
      <trkpt lat="48.41036" lon="2.60808">
        <ele>95</ele>
        <time>2023-02-10T10:38:12Z</time>
      </trkpt>
      <trkpt lat="48.40993" lon="2.60787">
        <ele>96</ele>
        <time>2023-02-10T10:38:22Z</time>
      </trkpt>
      <trkpt lat="48.40931" lon="2.60778">
        <ele>101</ele>
        <time>2023-02-10T10:38:37Z</time>
      </trkpt>
      <trkpt lat="48.40771" lon="2.60821">
        <ele>112</ele>
        <time>2023-02-10T10:39:15Z</time>
      </trkpt>
      <trkpt lat="48.40754" lon="2.61041">
        <ele>115</ele>
        <time>2023-02-10T10:39:49Z</time>
      </trkpt>
      <trkpt lat="48.4075" lon="2.61174">
        <ele>116</ele>
        <time>2023-02-10T10:40:10Z</time>
      </trkpt>
      <trkpt lat="48.40735" lon="2.61317">
        <ele>121</ele>
        <time>2023-02-10T10:40:32Z</time>
      </trkpt>
      <trkpt lat="48.40709" lon="2.61431">
        <ele>125</ele>
        <time>2023-02-10T10:40:51Z</time>
      </trkpt>
      <trkpt lat="48.40682" lon="2.61601">
        <ele>119</ele>
        <time>2023-02-10T10:41:18Z</time>
      </trkpt>
      <trkpt lat="48.40599" lon="2.62207">
        <ele>127</ele>
        <time>2023-02-10T10:42:54Z</time>
      </trkpt>
      <trkpt lat="48.40527" lon="2.62753">
        <ele>125</ele>
        <time>2023-02-10T10:44:20Z</time>
      </trkpt>
      <trkpt lat="48.40502" lon="2.63117">
        <ele>133</ele>
        <time>2023-02-10T10:45:17Z</time>
      </trkpt>
      <trkpt lat="48.40498" lon="2.6322">
        <ele>135</ele>
        <time>2023-02-10T10:45:33Z</time>
      </trkpt>
      <trkpt lat="48.40406" lon="2.63853">
        <ele>137</ele>
        <time>2023-02-10T10:47:13Z</time>
      </trkpt>
      <trkpt lat="48.40367" lon="2.64001">
        <ele>135</ele>
        <time>2023-02-10T10:47:38Z</time>
      </trkpt>
      <trkpt lat="48.4018" lon="2.65263">
        <ele>104</ele>
        <time>2023-02-10T10:50:59Z</time>
      </trkpt>
      <trkpt lat="48.40129" lon="2.65749">
        <ele>102</ele>
        <time>2023-02-10T10:52:15Z</time>
      </trkpt>
      <trkpt lat="48.40114" lon="2.65951">
        <ele>100</ele>
        <time>2023-02-10T10:52:46Z</time>
      </trkpt>
      <trkpt lat="48.40094" lon="2.66053">
        <ele>97</ele>
        <time>2023-02-10T10:53:03Z</time>
      </trkpt>
      <trkpt lat="48.40104" lon="2.66041">
        <ele>97</ele>
        <time>2023-02-10T10:53:06Z</time>
      </trkpt>
      <trkpt lat="48.40301" lon="2.66055">
        <ele>95</ele>
        <time>2023-02-10T10:53:52Z</time>
      </trkpt>
      <trkpt lat="48.40381" lon="2.66059">
        <ele>99</ele>
        <time>2023-02-10T10:54:11Z</time>
      </trkpt>
      <trkpt lat="48.4038" lon="2.65779">
        <ele>96</ele>
        <time>2023-02-10T10:54:54Z</time>
      </trkpt>
      <trkpt lat="48.40382" lon="2.65544">
        <ele>98</ele>
        <time>2023-02-10T10:55:30Z</time>
      </trkpt>
      <trkpt lat="48.40436" lon="2.65091">
        <ele>105</ele>
        <time>2023-02-10T10:56:42Z</time>
      </trkpt>
      <trkpt lat="48.40529" lon="2.6496">
        <ele>112</ele>
        <time>2023-02-10T10:57:12Z</time>
      </trkpt>
      <trkpt lat="48.40648" lon="2.64948">
        <ele>116</ele>
        <time>2023-02-10T10:57:39Z</time>
      </trkpt>
      <trkpt lat="48.40717" lon="2.6481">
        <ele>122</ele>
        <time>2023-02-10T10:58:06Z</time>
      </trkpt>
      <trkpt lat="48.40732" lon="2.64641">
        <ele>127</ele>
        <time>2023-02-10T10:58:33Z</time>
      </trkpt>
      <trkpt lat="48.40755" lon="2.64499">
        <ele>133</ele>
        <time>2023-02-10T10:58:55Z</time>
      </trkpt>
      <trkpt lat="48.40798" lon="2.64283">
        <ele>137</ele>
        <time>2023-02-10T10:59:30Z</time>
      </trkpt>
      <trkpt lat="48.40812" lon="2.64334">
        <ele>137</ele>
        <time>2023-02-10T10:59:39Z</time>
      </trkpt>
      <trkpt lat="48.40889" lon="2.64768">
        <ele>137</ele>
        <time>2023-02-10T11:00:48Z</time>
      </trkpt>
      <trkpt lat="48.41166" lon="2.65606">
        <ele>135</ele>
        <time>2023-02-10T11:03:14Z</time>
      </trkpt>
      <trkpt lat="48.40811" lon="2.6547">
        <ele>134</ele>
        <time>2023-02-10T11:04:39Z</time>
      </trkpt>
      <trkpt lat="48.40866" lon="2.65953">
        <ele>138</ele>
        <time>2023-02-10T11:05:55Z</time>
      </trkpt>
      <trkpt lat="48.40774" lon="2.66177">
        <ele>131</ele>
        <time>2023-02-10T11:06:36Z</time>
      </trkpt>
      <trkpt lat="48.40776" lon="2.66428">
        <ele>134</ele>
        <time>2023-02-10T11:07:15Z</time>
      </trkpt>
      <trkpt lat="48.40825" lon="2.66869">
        <ele>133</ele>
        <time>2023-02-10T11:08:24Z</time>
      </trkpt>
      <trkpt lat="48.40897" lon="2.66819">
        <ele>134</ele>
        <time>2023-02-10T11:08:43Z</time>
      </trkpt>
      <trkpt lat="48.40967" lon="2.66825">
        <ele>130</ele>
        <time>2023-02-10T11:08:59Z</time>
      </trkpt>
      <trkpt lat="48.41034" lon="2.6735">
        <ele>106</ele>
        <time>2023-02-10T11:10:22Z</time>
      </trkpt>
      <trkpt lat="48.40835" lon="2.67903">
        <ele>94</ele>
        <time>2023-02-10T11:11:59Z</time>
      </trkpt>
      <trkpt lat="48.40695" lon="2.67472">
        <ele>95</ele>
        <time>2023-02-10T11:13:14Z</time>
      </trkpt>
      <trkpt lat="48.40548" lon="2.67676">
        <ele>85</ele>
        <time>2023-02-10T11:14:00Z</time>
      </trkpt>
      <trkpt lat="48.40459" lon="2.68307">
        <ele>83</ele>
        <time>2023-02-10T11:15:40Z</time>
      </trkpt>
    </trkseg>
  </trk>
</gpx>